Location: Casco Millpond
(44.5581°N, 87.6111°W)
Time: 23:21:08
(UTC+00:00)

Cosmos 2084 Rocket - Pass Details

Date: 16 January 2026
Orbit: 542 x 571 km, 62.8° (Epoch: 13 February)

Event Time Altitude Azimuth Distance (km) Brightness Sun altitude
Exits shadow 12:19:08 - 329° (NNW) 1,955 5.7 -11.3°
Reaches altitude 10° 12:19:20 10° 330° (NNW) 1,872 5.6 -11.2°
Maximum altitude 12:23:28 52° 47° (NE) 709 4.1 -10.5°
Drops below altitude 10° 12:27:36 10° 125° (SE) 1,870 7.4 -9.8°
Sets 12:29:53 0° 130° (SE) 2,765 8.4 -9.4°
